EW5212 Weather Reports


time (UTC)temp
F
wind
direction
speed
knots
gust
knots
rain 1hr
in
rain 24hr
in
rain mn
in
humidity
%
barometer
mb
20260509032036 61 0.0 0.0 0.00 0.00 0.00 56 1015.0
20260509031017 61 0.0 1.7 0.00 0.00 0.00 55 1014.9
20260509030016 62 0.0 1.7 0.00 0.00 0.00 55 1014.8
20260509025016 62 0.0 1.7 0.00 0.00 0.00 53 1014.9
20260509024017 62 0.0 2.6 0.00 0.00 0.00 53 1014.9
20260509023016 62 0.0 1.7 0.00 0.00 0.00 52 1014.9
20260509022017 62 0.0 2.6 0.00 0.00 0.00 51 1014.8
20260509021016 62 0.0 1.7 0.00 0.00 0.00 51 1014.9
20260509020016 63 0.0 1.7 0.00 0.00 0.00 50 1014.7
20260509015016 63 0.0 0.9 0.00 0.00 0.00 49 1014.6
20260509014016 63 0.0 1.7 0.00 0.00 0.00 49 1014.6
20260509013036 64 0.0 1.7 0.00 0.00 0.00 48 1014.4
20260509012057 64 0.0 0.9 0.00 0.00 0.00 50 1014.4
20260509011016 64 0.0 1.7 0.00 0.00 0.00 47 1014.3
20260509010016 65 0.0 1.7 0.00 0.00 0.00 46 1014.2
20260509005016 65 0.0 2.6 0.00 0.00 0.00 46 1014.2
20260509004017 66 0.0 0.0 0.00 0.00 0.00 45 1014.3
20260509003016 66 0.0 2.6 0.00 0.00 0.00 44 1014.2
20260509002017 67 0.0 1.7 0.00 0.00 0.00 44 1014.1
20260509001016 67 0.0 2.6 0.00 0.00 0.00 44 1014.1
20260509000016 68 293 0.9 4.3 0.00 0.00 0.00 43 1014.0
20260508235016 69 0.0 1.7 0.00 0.00 0.00 43 1013.9
20260508234016 69 270 0.9 4.3 0.00 0.00 0.00 41 1013.7
20260508233016 70 293 0.9 5.2 0.00 0.00 0.00 40 1013.6
20260508232016 71 270 0.9 3.5 0.00 0.00 0.00 39 1013.5
20260508231016 71 68 0.9 5.2 0.00 0.00 0.00 38 1013.5
20260508230016 71 68 0.9 3.5 0.00 0.00 0.00 38 1013.5
20260508225016 71 293 0.9 2.6 0.00 0.00 0.00 38 1013.5
20260508224036 72 68 1.7 4.3 0.00 0.00 0.00 37 1013.5
20260508223016 72 270 0.9 3.5 0.00 0.00 0.00 37 1013.5
20260508222016 72 293 1.7 6.1 0.00 0.00 0.00 37 1013.6
20260508221016 72 293 0.9 2.6 0.00 0.00 0.00 37 1013.7
20260508220017 73 293 1.7 7.0 0.00 0.00 0.00 36 1013.8
20260508215016 74 293 1.7 7.8 0.00 0.00 0.00 35 1013.8
20260508214056 74 270 1.7 6.1 0.00 0.00 0.00 35 1013.8
20260508213016 74 270 0.9 4.3 0.00 0.00 0.00 36 1013.8
20260508212016 74 270 2.6 7.8 0.00 0.00 0.00 35 1013.7
20260508211016 74 270 1.7 6.1 0.00 0.00 0.00 36 1013.8
20260508210016 74 90 0.9 3.5 0.00 0.00 0.00 35 1013.9
20260508205016 74 270 1.7 4.3 0.00 0.00 0.00 35 1013.9
20260508204057 74 315 1.7 5.2 0.00 0.00 0.00 36 1013.9
20260508203016 74 270 1.7 6.1 0.00 0.01 0.00 36 1014.1
20260508202016 74 68 1.7 4.3 0.00 0.02 0.00 35 1014.2
20260508201016 73 293 1.7 6.1 0.00 0.02 0.00 35 1014.2
20260508200016 74 270 1.7 9.6 0.00 0.03 0.00 37 1014.4
20260508195036 73 270 1.7 6.1 0.00 0.06 0.00 36 1014.5
20260508194016 73 225 0.9 3.5 0.00 0.06 0.00 38 1014.6
20260508193137 73 270 1.7 4.3 0.00 0.06 0.00 38 1014.8
20260508192016 73 270 1.7 6.1 0.00 0.07 0.00 38 1015.0
20260508191016 72 68 0.9 4.3 0.00 0.07 0.00 38 1015.2
20260508190016 72 90 1.7 5.2 0.00 0.07 0.00 38 1015.2
20260508185016 73 270 0.9 4.3 0.00 0.07 0.00 38 1015.3
20260508184016 72 293 2.6 7.0 0.00 0.07 0.00 39 1015.4
20260508183016 72 90 0.9 2.6 0.00 0.07 0.00 40 1015.6
20260508182016 72 270 1.7 5.2 0.00 0.07 0.00 38 1015.7
20260508181036 72 270 0.9 4.3 0.00 0.07 0.00 39 1015.9
20260508180016 72 90 0.9 1.7 0.00 0.07 0.00 38 1016.0
20260508175016 72 68 1.7 5.2 0.00 0.07 0.00 38 1016.1
20260508174016 72 338 0.9 2.6 0.00 0.07 0.00 38 1016.2
20260508173016 71 293 0.9 3.5 0.00 0.07 0.00 41 1016.2
20260508172016 71 68 0.9 3.5 0.00 0.07 0.00 40 1016.5
20260508171016 71 0 0.9 7.0 0.00 0.07 0.00 40 1016.7
20260508170016 70 270 0.9 2.6 0.00 0.07 0.00 41 1016.9
20260508165016 69 90 1.7 4.3 0.00 0.07 0.00 40 1017.0
20260508164036 70 270 1.7 6.1 0.00 0.07 0.00 42 1017.2
20260508163017 70 0.0 0.9 0.00 0.07 0.00 46 1017.4
20260508162016 70 270 0.9 2.6 0.00 0.07 0.00 40 1017.6
20260508161016 70 90 0.9 2.6 0.00 0.07 0.00 40 1017.7
20260508160016 69 68 0.9 3.5 0.00 0.07 0.00 42 1017.7
20260508155015 70 293 0.9 1.7 0.00 0.07 0.00 42 1017.9
20260508154016 68 90 0.9 3.5 0.00 0.07 0.00 41 1017.9
20260508153016 68 0.0 0.0 0.00 0.08 0.00 44 1018.0
20260508152016 67 0.0 0.9 0.00 0.08 0.00 43 1018.1
20260508151016 67 225 0.9 2.6 0.00 0.08 0.00 41 1018.3
20260508150016 67 0.0 0.9 0.00 0.08 0.00 46 1018.3
20260508145016 66 0.0 0.9 0.00 0.08 0.00 44 1018.3
20260508144016 66 0.0 0.9 0.00 0.08 0.00 50 1018.2
20260508143016 65 0.0 1.7 0.00 0.08 0.00 57 1018.2
20260508142015 64 0.0 0.9 0.00 0.08 0.00 57 1018.2
20260508141016 63 0.0 0.9 0.00 0.08 0.00 59 1018.1
20260508140016 61 0.0 1.7 0.00 0.08 0.00 64 1018.1
20260508135015 60 68 0.9 1.7 0.00 0.08 0.00 67 1018.1
20260508134016 59 0.0 2.6 0.00 0.08 0.00 76 1018.3
20260508133036 57 0.0 0.0 0.00 0.08 0.00 86 1018.3
20260508132015 55 0.0 0.9 0.00 0.08 0.00 99 1018.2
20260508131055 54 0.0 0.0 0.00 0.08 0.00 99 1018.2
20260508130016 52 0.0 0.0 0.00 0.08 0.00 99 1018.2
20260508125035 49 0.0 0.0 0.00 0.08 0.00 99 1018.1
20260508124016 47 0.0 0.0 0.00 0.08 0.00 99 1018.2
20260508123016 46 0.0 0.9 0.00 0.08 0.00 99 1018.2
20260508122035 45 0.0 0.0 0.00 0.08 0.00 99 1018.1
20260508121015 44 0.0 0.0 0.00 0.08 0.00 99 1017.7
20260508120015 43 0.0 0.0 0.00 0.08 0.00 98 1017.6
20260508115036 41 0.0 0.0 0.00 0.08 0.00 98 1017.4
20260508114016 40 0.0 0.0 0.00 0.08 0.00 98 1017.3
20260508113116 39 0.0 0.0 0.00 0.08 0.00 97 1017.3
20260508112015 39 0.0 0.0 0.00 0.08 0.00 97 1017.1
20260508111036 39 0.0 0.0 0.00 0.08 0.00 97 1016.9
20260508110016 39 0.0 0.0 0.00 0.08 0.00 97 1016.7
20260508105015 39 0.0 0.0 0.00 0.08 0.00 97 1016.6
20260508104015 39 0.0 0.0 0.00 0.08 0.00 97 1016.3
20260508103015 40 0.0 0.0 0.00 0.08 0.00 97 1016.2
20260508102015 40 0.0 0.0 0.00 0.08 0.00 97 1016.2
20260508101015 40 0.0 0.0 0.00 0.08 0.00 97 1016.1
20260508100015 40 0.0 0.0 0.00 0.08 0.00 97 1016.0
20260508095015 41 0.0 0.0 0.00 0.08 0.00 97 1015.8
20260508094035 41 0.0 0.0 0.00 0.08 0.00 97 1015.8
20260508093015 41 0.0 0.0 0.00 0.08 0.00 97 1015.7
20260508092015 41 0.0 0.0 0.00 0.08 0.00 97 1015.5
20260508091016 41 0.0 0.0 0.00 0.08 0.00 98 1015.4
20260508090015 41 0.0 0.0 0.00 0.08 0.00 98 1015.4
20260508085055 40 0.0 0.0 0.00 0.08 0.00 98 1015.2
20260508084015 40 0.0 0.0 0.00 0.09 0.00 97 1015.1
20260508083015 39 0.0 0.0 0.00 0.09 0.00 97 1015.0
20260508082015 39 0.0 0.0 0.00 0.09 0.00 97 1014.9
20260508081015 39 0.0 0.0 0.00 0.09 0.00 96 1014.8
20260508080016 40 0.0 0.0 0.00 0.09 0.00 96 1014.7
20260508075015 40 0.0 0.0 0.00 0.09 0.00 97 1014.6
20260508074035 40 0.0 0.0 0.00 0.09 0.00 97 1014.5
20260508073035 40 0.0 0.0 0.00 0.09 0.00 97 1014.4
20260508072015 41 0.0 0.0 0.00 0.09 0.00 96 1014.3
20260508071055 41 0.0 0.0 0.00 0.09 0.00 96 1014.1
20260508070016 41 0.0 0.0 0.00 0.09 0.00 96 1014.1
20260508065016 41 0.0 0.0 0.00 0.09 0.00 96 1014.2
20260508064015 42 0.0 0.0 0.00 0.09 0.00 96 1014.1
20260508063015 42 0.0 0.0 0.00 0.09 0.00 96 1014.0
20260508062015 42 0.0 0.0 0.00 0.09 0.00 96 1014.0
20260508061015 43 0.0 0.0 0.00 0.09 0.00 96 1013.8
20260508060055 43 0.0 0.0 0.00 0.09 0.00 96 1013.7
20260508055015 43 0.0 0.0 0.00 0.09 0.00 96 1013.7
20260508054016 44 0.0 0.0 0.00 0.09 0.00 96 1013.6
20260508053015 44 0.0 0.0 0.00 0.09 0.00 96 1013.6
20260508052017 44 0.0 0.0 0.00 0.09 0.00 96 1013.7
20260508051017 45 0.0 0.0 0.00 0.09 0.00 96 1013.7
20260508050037 45 0.0 0.0 0.00 0.09 0.00 96 1013.7
20260508045017 45 0.0 0.0 0.00 0.09 0.00 96 1013.5
20260508044018 46 0.0 0.0 0.00 0.09 0.00 96 1013.4
20260508043017 46 0.0 0.0 0.00 0.09 0.00 96 1013.3
20260508042017 46 0.0 0.0 0.00 0.09 0.00 96 1013.4
20260508041017 46 0.0 0.0 0.00 0.09 0.00 96 1013.3
20260508040017 47 0.0 0.0 0.00 0.09 0.00 96 1013.2
20260508035036 47 0.0 0.0 0.00 0.09 0.09 96 1013.1
20260508034017 47 0.0 0.0 0.00 0.09 0.09 96 1013.2
20260508033016 47 0.0 0.0 0.00 0.09 0.09 96 1013.2